| time (UTC) | temp F | wind direction | speed MPH | gust MPH | rain 1hr in | rain 24hr in | rain mn in | humidity % | barometer mb |
| 20260506103006 | 32 | 268 | 1.0 | 2.0 | 0.00 | 0.00 | 0.00 | 83 | 1011.6 |
| 20260506101506 | 32 | 273 | 1.0 | 2.0 | 0.00 | 0.00 | 0.00 | 82 | 1011.5 |
| 20260506100001 | 32 | 275 | 1.0 | 2.0 | 0.00 | 0.00 | 0.00 | 82 | 1011.5 |
| 20260506094601 | 32 | 272 | 0.0 | 2.0 | 0.00 | 0.00 | 0.00 | 82 | 1011.5 |
| 20260506093059 | 32 | 272 | 0.0 | 2.0 | 0.00 | 0.00 | 0.00 | 81 | 1011.5 |
| 20260506091558 | 32 | 271 | 1.0 | 2.0 | 0.00 | 0.00 | 0.00 | 81 | 1011.4 |
| 20260506090057 | 32 | 272 | 1.0 | 2.0 | 0.00 | 0.00 | 0.00 | 81 | 1011.4 |
| 20260506084621 | 32 | 272 | 1.0 | 2.0 | 0.00 | 0.00 | 0.00 | 81 | 1011.3 |
| 20260506083056 | 31 | 287 | 1.0 | 3.0 | 0.00 | 0.00 | 0.00 | 81 | 1011.2 |
| 20260506081557 | 32 | 287 | 1.0 | 2.0 | 0.00 | 0.00 | 0.00 | 80 | 1011.3 |
| 20260506073052 | 31 | 287 | 0.0 | 2.0 | 0.00 | 0.00 | 0.00 | 80 | 1011.3 |
| 20260506071551 | 31 | 287 | 0.0 | 2.0 | 0.00 | 0.00 | 0.00 | 80 | 1011.3 |
| 20260506061543 | 30 | 274 | 1.0 | 3.0 | 0.00 | 0.00 | 0.00 | 80 | 1011.2 |
| 20260506044606 | 29 | 303 | 0.0 | 2.0 | 0.00 | 0.00 | 0.00 | 72 | 1010.8 |
| 20260506043032 | 31 | 310 | 1.0 | 2.0 | 0.00 | 0.00 | 0.00 | 70 | 1010.8 |
| 20260506041529 | 32 | 310 | 0.0 | 2.0 | 0.00 | 0.00 | 0.00 | 69 | 1010.8 |
| 20260506040030 | 33 | 310 | 1.0 | 3.0 | 0.00 | 0.00 | 0.00 | 68 | 1010.8 |
| 20260506034553 | 33 | 317 | 1.0 | 3.0 | 0.00 | 0.00 | 0.00 | 68 | 1010.6 |
| 20260506033027 | 33 | 327 | 1.0 | 3.0 | 0.00 | 0.00 | 0.00 | 67 | 1010.5 |
| 20260506031526 | 34 | 329 | 1.0 | 3.0 | 0.00 | 0.00 | 0.00 | 65 | 1010.3 |
| 20260506030024 | 35 | 337 | 1.0 | 4.0 | 0.00 | 0.00 | 0.00 | 63 | 1010.1 |
| 20260506024521 | 36 | 329 | 2.0 | 4.0 | 0.00 | 0.00 | 0.00 | 62 | 1009.9 |
| 20260506023018 | 38 | 346 | 2.0 | 4.0 | 0.00 | 0.00 | 0.00 | 61 | 1009.6 |
| 20260506021515 | 39 | 352 | 1.0 | 3.0 | 0.00 | 0.00 | 0.00 | 60 | 1009.4 |
| 20260506020014 | 39 | 351 | 2.0 | 6.0 | 0.00 | 0.00 | 0.00 | 58 | 1009.2 |
| 20260506014516 | 40 | 341 | 4.0 | 8.0 | 0.00 | 0.00 | 0.00 | 55 | 1009.0 |
| 20260506013011 | 41 | 350 | 4.0 | 9.0 | 0.00 | 0.00 | 0.00 | 54 | 1009.0 |
| 20260506011514 | 42 | 339 | 7.0 | 13.0 | 0.00 | 0.00 | 0.00 | 51 | 1008.9 |
| 20260506010009 | 43 | 358 | 6.0 | 13.0 | 0.00 | 0.00 | 0.00 | 51 | 1008.7 |
| 20260506004513 | 44 | 325 | 8.0 | 13.0 | 0.00 | 0.00 | 0.00 | 48 | 1008.6 |
| 20260506003008 | 44 | 330 | 9.0 | 14.0 | 0.00 | 0.00 | 0.00 | 46 | 1008.4 |
| 20260506001504 | 44 | 332 | 9.0 | 14.0 | 0.00 | 0.00 | 0.00 | 46 | 1008.4 |
| 20260506000002 | 44 | 318 | 11.0 | 15.0 | 0.00 | 0.00 | 0.00 | 45 | 1008.2 |
| 20260505234505 | 44 | 332 | 10.0 | 14.0 | 0.00 | 0.00 | 0.00 | 46 | 1008.1 |
| 20260505233006 | 44 | 329 | 10.0 | 14.0 | 0.00 | 0.00 | 0.00 | 45 | 1008.2 |
| 20260505231504 | 44 | 325 | 10.0 | 14.0 | 0.00 | 0.00 | 0.00 | 44 | 1008.0 |
| 20260505230105 | 45 | 306 | 10.0 | 17.0 | 0.00 | 0.00 | 0.00 | 44 | 1008.0 |
| 20260505224700 | 45 | 318 | 10.0 | 15.0 | 0.00 | 0.00 | 0.00 | 43 | 1008.0 |
| 20260505223059 | 45 | 322 | 9.0 | 13.0 | 0.00 | 0.00 | 0.00 | 42 | 1008.0 |
| 20260505221601 | 45 | 302 | 10.0 | 14.0 | 0.00 | 0.00 | 0.00 | 43 | 1007.9 |
| 20260505220105 | 45 | 329 | 10.0 | 14.0 | 0.00 | 0.00 | 0.00 | 43 | 1008.0 |
| 20260505214605 | 45 | 311 | 12.0 | 17.0 | 0.00 | 0.00 | 0.00 | 42 | 1008.0 |
| 20260505213103 | 45 | 299 | 8.0 | 14.0 | 0.00 | 0.00 | 0.00 | 42 | 1008.0 |
| 20260505211602 | 45 | 319 | 9.0 | 16.0 | 0.00 | 0.00 | 0.00 | 42 | 1008.1 |
| 20260505210054 | 45 | 303 | 10.0 | 17.0 | 0.00 | 0.00 | 0.00 | 42 | 1008.1 |
| 20260505204555 | 46 | 322 | 9.0 | 18.0 | 0.00 | 0.00 | 0.00 | 41 | 1008.0 |
| 20260505203054 | 45 | 336 | 11.0 | 17.0 | 0.00 | 0.00 | 0.00 | 41 | 1007.9 |
| 20260505201551 | 45 | 295 | 10.0 | 20.0 | 0.00 | 0.00 | 0.00 | 41 | 1007.9 |
| 20260505200050 | 45 | 312 | 10.0 | 17.0 | 0.00 | 0.00 | 0.00 | 41 | 1007.9 |
| 20260505194550 | 45 | 319 | 11.0 | 17.0 | 0.00 | 0.00 | 0.00 | 40 | 1007.8 |
| 20260505193052 | 45 | 322 | 7.0 | 19.0 | 0.00 | 0.00 | 0.00 | 41 | 1007.8 |
| 20260505191556 | 45 | 320 | 11.0 | 18.0 | 0.00 | 0.00 | 0.00 | 40 | 1007.8 |
| 20260505190050 | 45 | 287 | 9.0 | 19.0 | 0.00 | 0.00 | 0.00 | 41 | 1007.7 |
| 20260505184545 | 44 | 298 | 11.0 | 18.0 | 0.00 | 0.00 | 0.00 | 42 | 1007.7 |
| 20260505183045 | 44 | 315 | 8.0 | 14.0 | 0.00 | 0.00 | 0.00 | 43 | 1007.8 |
| 20260505181543 | 44 | 308 | 11.0 | 19.0 | 0.00 | 0.00 | 0.00 | 44 | 1007.9 |
| 20260505180051 | 44 | 334 | 11.0 | 20.0 | 0.00 | 0.00 | 0.00 | 44 | 1007.6 |
| 20260505174557 | 44 | 304 | 12.0 | 20.0 | 0.00 | 0.00 | 0.00 | 45 | 1007.6 |
| 20260505173039 | 44 | 329 | 12.0 | 16.0 | 0.00 | 0.00 | 0.00 | 45 | 1007.5 |
| 20260505171540 | 43 | 321 | 11.0 | 19.0 | 0.00 | 0.00 | 0.00 | 44 | 1007.5 |
| 20260505170046 | 43 | 317 | 13.0 | 20.0 | 0.00 | 0.00 | 0.00 | 45 | 1007.5 |
| 20260505164536 | 44 | 338 | 14.0 | 23.0 | 0.00 | 0.00 | 0.00 | 43 | 1007.2 |
| 20260505161533 | 43 | 321 | 11.0 | 22.0 | 0.00 | 0.00 | 0.00 | 46 | 1007.2 |
| 20260505153035 | 44 | 302 | 13.0 | 21.0 | 0.00 | 0.00 | 0.00 | 46 | 1007.0 |
| 20260505151530 | 43 | 309 | 14.0 | 20.0 | 0.00 | 0.00 | 0.00 | 46 | 1006.9 |
| 20260505124554 | 34 | 301 | 7.0 | 11.0 | 0.00 | 0.00 | 0.00 | 79 | 1005.8 |
| 20260505123108 | 32 | 296 | 6.0 | 10.0 | 0.00 | 0.00 | 0.00 | 81 | 1005.8 |
| 20260505121548 | 31 | 301 | 5.0 | 8.0 | 0.00 | 0.00 | 0.00 | 84 | 1005.6 |
| 20260505120047 | 29 | 288 | 4.0 | 7.0 | 0.00 | 0.00 | 0.00 | 85 | 1005.4 |
| 20260505114604 | 28 | 289 | 4.0 | 7.0 | 0.00 | 0.00 | 0.00 | 85 | 1005.3 |
| 20260505113042 | 27 | 282 | 3.0 | 6.0 | 0.00 | 0.00 | 0.00 | 85 | 1005.2 |
| 20260505111556 | 28 | 283 | 3.0 | 5.0 | 0.00 | 0.00 | 0.00 | 85 | 1005.2 |